Regional Weather Roundup
Issued by NWS

Home | Current Version | Previous Version | Text Only | Print | Product List | Glossary On
Versions: 1 2 3 4 5 6 7 8 9 10 11 12 13 14 15 16 17 18 19 20 21 22 23 24 25 26 27 28 29 30 31 32 33 34 35 36 37 38 39 40 41 42 43 44 45 46 47 48 49 50
000
ASUS43 KLSX 281159
RWRMO

WEATHER SUMMARY FOR MISSOURI
NATIONAL WEATHER SERVICE SPRINGFIELD MO
700 AM CDT FRI APR 28 2017

NOTE: "FAIR" INDICATES FEW OR NO CLOUDS BELOW 12,000 FEET WITH NO
       SIGNIFICANT WEATHER AND/OR OBSTRUCTIONS TO VISIBILITY.
       CURRENT SKY AND/OR WEATHER CONDITIONS ARE NOT AVAILABLE FOR
       CHILLICOTHE AND FARMINGTON.

MOZ001>031-035>038-043-044-053-054-281300-
...NORTHERN AND WESTERN MISSOURI...

CITY           SKY/WX    TMP DP  RH WIND       PRES   REMARKS
KANSAS CTY INT LGT RAIN  51  49  92 E16       29.67F FOG
6HR MIN TEMP:  50; 6HR MAX TEMP:  51; 6HR PCP:  0.16;

KANSAS C DTWN  LGT RAIN  52  50  93 E10       29.66F
6HR MIN TEMP:  51; 6HR MAX TEMP:  53; 6HR PCP:  0.20;

LEE`S SUMMIT   LGT RAIN  51  50  96 E8        29.69S
6HR MIN TEMP:  50; 6HR MAX TEMP:  52; 6HR PCP:  0.24;

ST JOSEPH      LGT RAIN  50  49  96 E14G21    29.69F
6HR MIN TEMP:  50; 6HR MAX TEMP:  51; 6HR PCP:  0.20;

CHILLICOTHE      N/A     50  49  96 E5        29.75F
6HR MIN TEMP:  50; 6HR MAX TEMP:  52; 6HR PCP:  0.01;

KIRKSVILLE     CLOUDY    45  44  97 NE14      29.79S
6HR MIN TEMP:  45; 6HR MAX TEMP:  49;


$$
MOZ066>068-077>081-088>096-101>105-281300-
...SOUTHWEST MISSOURI...

CITY           SKY/WX    TMP DP  RH WIND       PRES   REMARKS
SPRINGFIELD    LGT RAIN  55  53  93 SE16      29.75R
6HR MIN TEMP:  54; 6HR MAX TEMP:  57; 6HR PCP:  0.56;

JOPLIN         CLOUDY    58  54  86 S15       29.66S
6HR MIN TEMP:  58; 6HR MAX TEMP:  60; 6HR PCP:  0.21;

BRANSON        CLOUDY    54  52  94 NE3       29.76R

$$
MOZ032>034-039>042-045>050-055>058-069>072-281300-
...CENTRAL MISSOURI...

CITY           SKY/WX    TMP DP  RH WIND       PRES   REMARKS
COLUMBIA       CLOUDY    53  51  93 E13       29.74F
6HR MIN TEMP:  51; 6HR MAX TEMP:  53; 6HR PCP:  0.01;

JEFFERSON CITY CLOUDY    56  50  80 E7        29.75F
6HR MIN TEMP:  55; 6HR MAX TEMP:  57; 6HR PCP: TRACE;

ROLLA          RAIN      54  52  93 SE15      29.75S
6HR MIN TEMP:  51; 6HR MAX TEMP:  54; 6HR PCP:  0.01;

SEDALIA        LGT RAIN  53  52  96 E9        29.71F
6HR MIN TEMP:  52; 6HR MAX TEMP:  55; 6HR PCP:  0.08;

WHITEMAN AFB   LGT RAIN  52  52 100 E7        29.69F
OSAGE BEACH    RAIN      55  53  93 SE7       29.72F

$$
MOZ051-052-059>065-281300-
...EAST CENTRAL MISSOURI...

CITY           SKY/WX    TMP DP  RH WIND       PRES   REMARKS
ST LOUIS INTL  CLOUDY    55  50  83 E10       29.83F
6HR MIN TEMP:  55; 6HR MAX TEMP:  58; 6HR PCP: TRACE;

SPIRIT OF STL  CLOUDY    54  52  93 E7        29.81F
6HR MIN TEMP:  52; 6HR MAX TEMP:  55; 6HR PCP: TRACE;

ST CHARLES     CLOUDY    53  51  93 E14       29.83S
6HR MIN TEMP:  53; 6HR MAX TEMP:  54; 6HR PCP: TRACE;


$$
MOZ072>076-082>087-097>100-106>115-281300-
...SOUTH CENTRAL AND SOUTHEAST MISSOURI...

CITY           SKY/WX    TMP DP  RH WIND       PRES   REMARKS
CAPE GIRARDEAU CLOUDY    55  51  86 SE8       29.88S
6HR MIN TEMP:  53; 6HR MAX TEMP:  55;

FARMINGTON     PTCLDY    54  50  86 E8        29.83F
6HR MIN TEMP:  52; 6HR MAX TEMP:  55; 6HR PCP: TRACE;

POPLAR BLUFF   CLOUDY    56  54  93 E3        29.85F
6HR MIN TEMP:  56; 6HR MAX TEMP:  57;

WEST PLAINS    CLOUDY    55  50  83 SE8       29.78F
6HR MIN TEMP:  53; 6HR MAX TEMP:  56;


$$



USA.gov is the U.S. government's official web portal to all federal, state and local government web resources and services.